Fremont, MI

8:43 PM EST on December 10, 2019 (GMT -0500)
Fremont

Weather History for KFFX - August, 2019

Change the Weather History Date:

Sunday, August 18, 2019

  Actual Average (WUND) Record (WUND)
Temperature  
Mean Temperature 70 °F -  
Max Temperature 77 °F - - (-1)
Min Temperature 62 °F - - (-1)
Cooling Degree Days 4    
Growing Degree Days 20 (Base 50)    
Moisture  
Dew Point 66 °F    
Average Humidity 89    
Maximum Humidity 100    
Minimum Humidity 64    
Precipitation  
Precipitation 0.00 in - - ()
Sea Level Pressure  
Sea Level Pressure 29.84 in    
Wind  
Wind Speed 3 mph (SSW)    
Max Wind Speed 20 mph    
Max Gust Speed 31 mph    
Visibility 8 miles    
Events Fog , Rain    
Averages and records for this station are not official NWS values.
T = Trace of Precipitation, MM = Missing Value Source: NWS Daily Summary

Daily Weather History Graph

Daily Weather History Graph

Search for Another Location

Airport or City:

Astronomy

Aug. 18, 2019 Rise Set
Actual Time 6:52 AM EDT 8:42 PM EDT
Civil Twilight 6:21 AM EDT 9:13 PM EDT
Nautical Twilight 5:43 AM EDT 9:50 PM EDT
Astronomical Twilight 5:03 AM EDT 10:30 PM EDT
Moon 10:32 PM EDT (8/18) 9:40 AM EDT (8/18)
Length of Visible Light 14h 51m
Length of Day
13h 50m
Waning Gibbous, 91% of the Moon is Illuminated
Aug 18
Waning Gibbous
Aug 23
Last Quarter
Aug 30
New
Sep 5
First Quarter
Sep 14
Full

Hourly Weather History & Observations

Time (EDT) Temp. Dew Point Humidity Pressure Visibility Wind Dir Wind Speed Gust Speed Precip Events Conditions
12:15 AM 67.1 °F 63.0 °F 87% 29.90 in 10.0 mi Calm Calm - N/A   Mostly Cloudy
12:56 AM 66.7 °F 65.3 °F 95% 29.91 in 10.0 mi Calm Calm - N/A   Overcast
1:15 AM 67.6 °F 60.8 °F 79% 29.89 in 10.0 mi Calm Calm - N/A   Mostly Cloudy
1:16 AM 67.5 °F 60.8 °F 79% 29.89 in 10.0 mi Calm Calm - N/A   Mostly Cloudy
1:35 AM 65.5 °F 64.0 °F 95% 29.89 in 10.0 mi Calm Calm - N/A   Scattered Clouds
1:36 AM 65.5 °F 64.0 °F 95% 29.89 in 10.0 mi Calm Calm - N/A   Scattered Clouds
1:59 AM 65.5 °F 64.4 °F 96% 29.90 in 10.0 mi Calm Calm - N/A   Scattered Clouds
2:16 AM 64.6 °F 64.2 °F 99% 29.89 in 10.0 mi Calm Calm - N/A   Scattered Clouds
2:35 AM 62.6 °F 62.6 °F 100% 29.88 in 10.0 mi East 3.5 mph - N/A   Clear
2:36 AM 62.6 °F 62.6 °F 100% 29.88 in 10.0 mi East 3.5 mph - N/A   Clear
2:55 AM 63.5 °F 63.5 °F 100% 29.88 in 10.0 mi Calm Calm - N/A   Clear
2:56 AM 63.5 °F 63.5 °F 100% 29.88 in 10.0 mi Calm Calm - N/A   Clear
3:15 AM 64.0 °F 63.9 °F 99% 29.87 in 10.0 mi Calm Calm - N/A   Clear
3:38 AM 62.6 °F 62.6 °F 100% 29.86 in 10.0 mi SE 3.5 mph - N/A   Clear
3:56 AM 63.7 °F 63.3 °F 99% 29.86 in 10.0 mi Calm Calm - N/A   Clear
4:15 AM 63.7 °F 63.7 °F 100% 29.86 in 10.0 mi Calm Calm - N/A   Clear
4:16 AM 63.7 °F 63.7 °F 100% 29.86 in 10.0 mi Calm Calm - N/A   Clear
4:35 AM 64.4 °F 64.4 °F 100% 29.87 in 10.0 mi Calm Calm - N/A   Mostly Cloudy
4:36 AM 64.6 °F 64.6 °F 100% 29.87 in 10.0 mi Calm Calm - N/A   Mostly Cloudy
4:59 AM 65.3 °F 65.3 °F 100% 29.87 in 10.0 mi Calm Calm - N/A   Overcast
5:17 AM 64.8 °F 64.8 °F 100% 29.86 in 10.0 mi Calm Calm - N/A   Overcast
5:35 AM 65.5 °F 65.5 °F 100% 29.85 in 10.0 mi Calm Calm - N/A   Overcast
5:55 AM 66.4 °F 66.4 °F 100% 29.85 in 7.0 mi Calm Calm - N/A   Overcast
5:56 AM 66.4 °F 66.4 °F 100% 29.85 in 7.0 mi Calm Calm - N/A   Overcast
6:15 AM 66.6 °F 66.6 °F 100% 29.84 in 0.8 mi ESE 3.5 mph - N/A   Overcast
6:20 AM 66.4 °F 66.4 °F 100% 29.83 in 0.5 mi ESE 4.6 mph - N/A Fog Fog
6:38 AM 66.7 °F 66.7 °F 100% 29.83 in 0.2 mi SSE 3.5 mph - N/A Fog Fog
6:56 AM 67.1 °F 67.1 °F 100% 29.83 in 0.2 mi SE 4.6 mph - N/A Fog Fog
7:15 AM 67.3 °F 67.3 °F 100% 29.83 in 0.2 mi SSE 4.6 mph - N/A Fog Fog
7:35 AM 68.0 °F 68.0 °F 100% 29.83 in 0.2 mi SSE 4.6 mph - N/A Fog Fog
7:59 AM 68.4 °F 68.4 °F 100% 29.83 in 0.8 mi SSE 4.6 mph - N/A   Overcast
8:17 AM 68.5 °F 68.5 °F 100% 29.83 in 0.8 mi South 6.9 mph - N/A   Overcast
8:35 AM 68.9 °F 68.9 °F 100% 29.82 in 0.8 mi Calm Calm - N/A   Overcast
8:55 AM 69.8 °F 69.8 °F 100% 29.82 in 3.0 mi SSE 3.5 mph - N/A   Overcast
8:56 AM 69.8 °F 69.8 °F 100% 29.82 in 3.0 mi Calm Calm - N/A   Overcast
9:15 AM 71.1 °F 71.1 °F 100% 29.82 in 5.0 mi SSE 4.6 mph - N/A   Mostly Cloudy
9:20 AM 71.4 °F 70.9 °F 98% 29.82 in 7.0 mi SSE 4.6 mph - N/A   Mostly Cloudy
9:38 AM 73.0 °F 69.6 °F 89% 29.83 in 10.0 mi South 8.1 mph - N/A   Scattered Clouds
9:56 AM 73.6 °F 70.0 °F 88% 29.83 in 10.0 mi South 8.1 mph - N/A   Scattered Clouds
10:15 AM 74.1 °F 68.5 °F 83% 29.82 in 10.0 mi South 4.6 mph - N/A   Overcast
10:35 AM 74.7 °F 67.3 °F 78% 29.81 in 10.0 mi South 9.2 mph - N/A   Scattered Clouds
10:59 AM 75.0 °F 67.1 °F 76% 29.81 in 10.0 mi South 9.2 mph - N/A   Scattered Clouds
11:17 AM 73.2 °F 70.2 °F 90% 29.83 in 7.0 mi South 9.2 mph - N/A Rain Light Rain
11:35 AM 65.5 °F 65.3 °F 99% 29.84 in 1.8 mi Calm Calm - N/A Rain Rain
11:55 AM 65.7 °F 65.7 °F 100% 29.86 in 7.0 mi Calm Calm - N/A Rain Rain
12:15 PM 66.2 °F 66.2 °F 100% 29.85 in 7.0 mi SE 5.8 mph - N/A Rain Rain
12:38 PM 67.6 °F 67.6 °F 100% 29.81 in 10.0 mi SE 9.2 mph - N/A Rain Light Rain
12:56 PM 68.0 °F 68.0 °F 100% 29.79 in 10.0 mi SE 8.1 mph - N/A   Scattered Clouds
1:15 PM 68.7 °F 68.7 °F 100% 29.77 in 10.0 mi SE 9.2 mph - N/A   Clear
1:16 PM 68.9 °F 68.9 °F 100% 29.76 in 10.0 mi SE 9.2 mph - N/A   Clear
1:35 PM 69.8 °F 68.5 °F 96% 29.76 in 10.0 mi SSE 10.4 mph 18.4 mph N/A   Clear
1:36 PM 69.8 °F 68.5 °F 96% 29.76 in 10.0 mi SSE 12.7 mph 18.4 mph N/A   Clear
1:59 PM 72.5 °F 66.0 °F 80% 29.75 in 10.0 mi South 5.8 mph - N/A   Clear
2:17 PM 73.9 °F 65.5 °F 75% 29.77 in 10.0 mi South 10.4 mph - N/A   Clear
2:35 PM 75.4 °F 65.7 °F 72% 29.77 in 10.0 mi WSW 5.8 mph - N/A   Clear
2:55 PM 77.2 °F 66.2 °F 69% 29.78 in 10.0 mi WSW 8.1 mph - N/A   Clear
2:56 PM 77.2 °F 66.0 °F 68% 29.78 in 10.0 mi WSW 9.2 mph - N/A   Clear
3:15 PM 76.8 °F 66.4 °F 70% 29.79 in 10.0 mi WSW 10.4 mph - N/A   Clear
3:20 PM 77.0 °F 66.6 °F 70% 29.79 in 10.0 mi SW 10.4 mph - N/A   Clear
3:38 PM 77.5 °F 65.8 °F 67% 29.80 in 10.0 mi WSW 10.4 mph 18.4 mph N/A   Clear
3:56 PM 77.9 °F 64.9 °F 64% 29.81 in 10.0 mi WSW 19.6 mph 31.1 mph N/A   Scattered Clouds
4:15 PM 74.5 °F 66.0 °F 75% 29.81 in 10.0 mi WSW 17.3 mph 27.6 mph N/A   Mostly Cloudy
4:16 PM 74.5 °F 66.0 °F 75% 29.81 in 10.0 mi WSW 16.1 mph 27.6 mph N/A   Mostly Cloudy
4:35 PM 73.4 °F 67.1 °F 81% 29.82 in 10.0 mi WSW 9.2 mph 18.4 mph N/A   Mostly Cloudy
4:58 PM 72.9 °F 66.7 °F 81% 29.82 in 10.0 mi WSW 10.4 mph 18.4 mph N/A   Mostly Cloudy
5:35 PM 73.0 °F 65.1 °F 76% 29.82 in 10.0 mi WSW 9.2 mph - N/A   Scattered Clouds
5:55 PM 73.9 °F 65.1 °F 74% 29.83 in 10.0 mi West 6.9 mph - N/A   Clear
6:15 PM 73.8 °F 64.4 °F 72% 29.83 in 10.0 mi West 6.9 mph - N/A   Clear
6:20 PM 74.5 °F 64.6 °F 71% 29.83 in 10.0 mi West 8.1 mph - N/A   Clear
6:38 PM 73.6 °F 63.3 °F 70% 29.83 in 10.0 mi West 10.4 mph 17.3 mph N/A   Clear
6:56 PM 73.4 °F 63.7 °F 71% 29.83 in 10.0 mi West 9.2 mph - N/A   Clear
7:15 PM 74.8 °F 64.6 °F 70% 29.83 in 10.0 mi West 6.9 mph - N/A   Clear
7:35 PM 75.0 °F 63.9 °F 68% 29.82 in 10.0 mi West 8.1 mph - N/A   Clear
7:59 PM 73.4 °F 62.6 °F 69% 29.81 in 10.0 mi West 11.5 mph 16.1 mph N/A   Clear
8:17 PM 72.5 °F 62.6 °F 71% 29.82 in 10.0 mi West 6.9 mph 17.3 mph N/A   Clear
8:35 PM 71.2 °F 62.6 °F 74% 29.83 in 10.0 mi West 8.1 mph - N/A   Clear
8:36 PM 71.2 °F 62.6 °F 74% 29.83 in 10.0 mi West 8.1 mph - N/A   Clear
8:55 PM 70.0 °F 63.1 °F 79% 29.83 in 10.0 mi West 6.9 mph - N/A   Clear
9:15 PM 68.9 °F 64.0 °F 84% 29.84 in 10.0 mi WSW 4.6 mph - N/A   Clear
9:38 PM 67.8 °F 65.3 °F 92% 29.85 in 10.0 mi WSW 3.5 mph - N/A   Clear
9:56 PM 67.6 °F 65.3 °F 92% 29.86 in 10.0 mi Calm Calm - N/A   Clear
10:15 PM 66.2 °F 64.9 °F 96% 29.86 in 10.0 mi Calm Calm - N/A   Clear
10:16 PM 66.0 °F 64.8 °F 96% 29.86 in 10.0 mi Calm Calm - N/A   Clear
10:35 PM 64.6 °F 64.6 °F 100% 29.86 in 10.0 mi SW 4.6 mph - N/A   Clear
10:59 PM 65.3 °F 64.9 °F 99% 29.88 in 10.0 mi Calm Calm - N/A   Clear
11:17 PM 63.9 °F 63.9 °F 100% 29.89 in 10.0 mi Calm Calm - N/A   Clear
11:35 PM 63.3 °F 63.3 °F 100% 29.89 in 10.0 mi Calm Calm - N/A   Clear
11:55 PM 63.0 °F 63.0 °F 100% 29.90 in 10.0 mi Calm Calm - N/A   Clear